COSMOS 2011

Satellite information

Favourite Embed

Satellite Type and Status

PAYLOADIN ORBIT

Key statistics

Satellite COSMOS 2011 at a glance.

Uptime

13419

Days in orbit

Revolutions

≈ 12.5

Per day

Orbit

LEO

Low Earth Orbit

Inclination

74.0

Latest

Satellite identification and parameters

Extended collection of information and parameters for COSMOS 2011.

Object identification

Identified? True

Debris? False

Object name: COSMOS 2011

International designator: 1989-025D

Object number (NORAD): 19905

Object ID (CCSDS): 19905

Country: COMMONWEALTH OF INDEPENDENT STATES (CIS)

Current information (Y/N): Y

RCS size: MEDIUM

Orbital parameters

Period: 114.997 minutes

Inclination: 74.0096 deg

SMA: 7833.411 km

Apoapsis: 1471.294 km

Periapsis: 1439.258 km

RAAN: 111.7178 deg

Eccentricy: 0.00204486

Argument of periapsis: 50.5763 deg

Mean anomaly: 62.0874 deg

Mean motion: 12.52207737 rev/day

Mean motion (dot): -0.0000003 rev/day2

B* drag term: -0.000090558994 1/REarth

Two-line elements (TLE)

Creation date: Dec. 19, 2025, 2:08 a.m.

Reference frame: TEME

Reference center: EARTH

Epoch: Dec. 18, 2025, 6:42 p.m. UTC

TLE line 0: 0 COSMOS 2011

TLE line 1: 1 19905U 89025D 25352.77943458 -.00000030 00000-0 -90559-4 0 9999

TLE line 2: 2 19905 74.0096 111.7178 0020449 50.5763 62.0874 12.52207737679334

Live tracking on map

Real-time ground track for satellite COSMOS 2011.

In-orbit conjunctions

A list of the most updated potential collisions computed for object COSMOS 2011.

Target Orbit TCA Probability of collision Miss distance Type
THORAD DELTA 1 DEB SSO 2024-12-31 01:55:15 0.0001308918 268.0 (m) DEBRIS

Associated space launch

Military communications satellites

COSMOS 2011 was lifted into orbit during the mission ‘Kosmos-3M | Strela-1M 337-344’, on board a Kosmos-3M space rocket.

The launch took place on March 24, 1989, 1:38 p.m. from 132/2.

For more information about the launch, click the button.

Launch to space Kosmos-3M | Strela-1M 337-344
Kosmos-3M | Strela-1M 337-344

Agency: N/A

Status: Launch Successful

Launch date: March 24, 1989, 1:38 p.m. UTC

Rocket: Kosmos-3M

Launch pad: 132/2

Location: Plesetsk Cosmodrome, Russian Federation

...

Latest news about this satellite

There are no fresh news available about this satellite. Check back as we update our databases every day.


Newsletter sign-up

Weekly statistics, charts and insights to help you stay on top of the space industry.